Regional Weather Roundup
Issued by NWS Wakefield, VA

Home | Current Version | Previous Version | Text Only | Print | Product List | Glossary Off
Versions: 1 2 3 4 5 6 7 8 9 10 11 12 13 14 15 16 17 18 19 20 21 22 23 24 25 26 27 28 29 30 31 32 33 34 35 36 37 38 39 40 41 42 43 44 45 46 47 48 49 50

000
ASUS41 KAKQ 271633
RWRAKQ

REGIONAL WEATHER ROUNDUP
NATIONAL WEATHER SERVICE WAKEFIELD VA
1200 PM EDT FRI MAR 27 2015

Note: "fair" indicates few or no clouds below 12,000 feet with no
significant weather and/or obstructions to visibility. * = Denotes
station may not report precipitation (e.g., rain,snow,etc.),
thunder or fog.

VAZ042-051-052>054-056-271700-
NORTHERN VIRGINIA

CITY           SKY/WX    TMP DP  RH WIND       PRES   REMARKS
WASH NATIONAL  CLOUDY    47  35  63 N10       29.84R
DULLES         CLOUDY    42  32  67 NW10      29.83S
FORT BELVOIR   CLOUDY    43  36  75 NW6       29.84R
QUANTICO       LGT RAIN  43  35  73 N9        29.85S
FREDERICKSBRG* LGT RAIN  41  39  90 N3        29.83F
STAFFORD*      LGT RAIN  40  32  73 CALM      29.87F
WARRENTON      CLOUDY    44  39  82 N7        29.81F
CULPEPER*      CLOUDY    45  36  70 N7        29.83F
MANASSAS*      NOT AVBL
LEESBURG*      CLOUDY    45  34  65 N8        29.84F
WINCHESTER     CLOUDY    45  27  49 N5        29.82F
FRONT ROYAL*   PTSUNNY   43  32  65 N3        29.80F
LURAY*         CLOUDY    45  36  70 NE5       29.80F
$$

VAZ048-049-060>072-079>083-271700-
CENTRAL AND SOUTH CENTRAL VIRGINIA

CITY           SKY/WX    TMP DP  RH WIND       PRES   REMARKS
RICHMOND       RAIN      41  37  87 N13       29.83R
CHESTERFIELD*  CLOUDY    41  28  60 N12G17    29.84R
PETERSBURG*    RAIN      43  41  93 N10G16    29.84R
HANOVER        RAIN      38  36  92 N8        29.85F FOG
TAPPAHANNOCK*  RAIN      41  36  82 NW10      29.83S
QUINTON*       CLOUDY    39  37  93 N8        29.82R
CHARLOTTSVILLE CLOUDY    42  37  82 N5        29.82F
GORDONSVILLE*  CLOUDY    40  37  89 NE6       29.82F
ORANGE*        CLOUDY    41  37  87 N5        29.84F
LOUISA*        LGT RAIN  39  37  93 NE6       29.83R
BUMPASS*       CLOUDY    39  36  89 N9        29.84S
FARMVILLE*     LGT RAIN  42  42 100 NE9       29.82F
CREWE*         CLOUDY    40  38  91 MISG      29.83S
FORT PICKETT*  CLOUDY    40  38  93 N8        29.82S
CHASE CITY*    CLOUDY    44  44  99 N9        29.80F
CLARKSVILLE*   CLOUDY    43  41  93 N8        29.79F
SOUTH HILL*    CLOUDY    42  41  93 N8        29.85F
LAWRENCEVILLE* CLOUDY    42  41  95 N7        29.81R
EMPORIA*       RAIN      43  41  93 N8        29.82R
$$

VAZ088>098-271700-
SOUTHEAST VIRGINIA

CITY           SKY/WX    TMP DP  RH WIND       PRES   REMARKS
NORFOLK        CLOUDY    44  40  85 N17G28    29.76R
VIRGINIA BEACH DRIZZLE   47  42  83 N10       29.75R FOG
NORFOLK NAVAL  DRIZZLE   47  41  80 N25       29.77F FOG
WEST POINT*    CLOUDY    44  40  86 N6        29.82R
SALUDA*        CLOUDY    41  38  91 N9G20     29.81R
NEWPORT NEWS   LGT RAIN  46  40  79 N13       29.79R
LANGLEY AFB    LGT RAIN  43  41  93 N10G21    29.78R FOG
FORT EUSTIS    LGT RAIN  43  43 100 NE10G18   29.77R
WILLIAMSBURG*  PTSUNNY   46  43  87 CALM      29.81R
HR EXEC AP*    CLOUDY    45  39  81 N9G21     29.78R
FRANKLIN*      DRIZZLE   44  41  91 N12G18    29.80R
WAKEFIELD      LGT RAIN  44  40  85 N8        29.80R FOG
$$

VAZ020-022-025-037-045-271700-
WEST CENTRAL AND SOUTHWEST VIRGINIA

CITY           SKY/WX    TMP DP  RH WIND       PRES   REMARKS
STAUNTON*      CLOUDY    44  33  67 N8        29.81F
WAYNESBORO*    CLOUDY    39  36  87 N6        29.79F
HOT SPRINGS VA CLOUDY    32  29  88 W12G23    29.71F WCI  23
LYNCHBURG      LGT RAIN  43  41  93 N5        29.81F
DANVILLE       LGT RAIN  46  41  82 NE10G21   29.80F
SOUTH BOSTON*  CLOUDY    43  40  89 N8        29.81F
MARTINSVILLE   LGT RAIN  43  42  99 N7        29.83S
ROANOKE        CLOUDY    42  35  76 NW8       29.83F
BLACKSBURG     CLOUDY    37  31  79 NW12      29.82F
DUBLIN*        CLOUDY    38  33  81 N9        29.81F
MARION*        CLOUDY    38  29  69 W9G18     29.83S
HILLSVILLE*    CLOUDY    37  33  85 N13G20    29.77R
RICHLANDS*     CLOUDY    33  26  76 NW9       29.84S
WISE*          CLOUDY    34  32  93 N10       29.87S
ABINGDON*      PTSUNNY   40  30  66 N15G21    29.85S
$$

MDZ021>025-VAZ099-100-271700-
SOUTHERN MARYLAND AND THE DELMARVA PENINSULA

CITY           SKY/WX    TMP DP  RH WIND       PRES   REMARKS
PATUXENT RIVER LGT RAIN  42  37  82 NW16      29.82R
BAY BRIDGE APT   N/A     43  36  75 N3        29.83R
LEONARDTOWN    CLOUDY    39  36  87 N3        29.83S
DOVER          LGT RAIN  39  39 100 N10       29.79S
GEORGETOWN     CLOUDY    42  36  79 N9        29.79S
EASTON         LGT RAIN  43  41  93 NE9       29.83F
CAMBRIDGE      CLOUDY    41  36  81 N12       29.81R
SALISBURY      LGT RAIN  41  36  82 N12G22    29.77S
OCEAN CITY     CLOUDY    43  36  76 N12       29.77R
WALLOPS ISLAND LGT RAIN  44  39  82 NE14      29.76F
ACCOMACK*      CLOUDY    43  36  75 N14G20    29.76S
$$

NCZ012>017-030>032-271700-
NORTH CENTRAL AND EASTERN NORTH CAROLINA

CITY           SKY/WX    TMP DP  RH WIND       PRES   REMARKS
ROANOKE RAPIDS RAIN      45  43  93 NE15G22   29.79R
RALEIGH        LGT RAIN  46  43  89 NE13G18   29.78S FOG
ELIZABETH CITY CLOUDY    46  45  93 N13       29.74S
AHOSKIE*       LGT RAIN  45  43  95 N9G16     29.80R
EDENTON*       CLOUDY    46  44  93 N10       29.74F FOG
CURRITUCK*     CLOUDY    46  43  91 N15G23    29.75S FOG
KILL DEVIL HLS CLOUDY    42  41  96 N15G23    29.71F
MANTEO         CLOUDY    43  42  95 N20G29    29.72F
CAPE HATTERAS  CLOUDY    47  44  90 N16G26    29.69F
TARBORO*       RAIN      46  45  93 NW10      29.80R
GOLDSBORO      RAIN      48  46  93 N10       29.72R FOG
WASHINGTON     CLOUDY    47  45  92 NE14      29.72F
GREENVILLE     LGT RAIN  48  46  93 N7        29.77R
NEW BERN       CLOUDY    51  47  86 N17G23    29.71R
WILMINGTON     CLOUDY    71  62  73 W6        29.65F
$$

VAZ048-271700-
ELSEWHERE

CITY           SKY/WX    TMP DP  RH WIND       PRES   REMARKS
HARRISBURG PA  CLOUDY    42  26  53 NE9       29.79F
BALTIMORE      CLOUDY    45  34  65 NW7       29.82R
ANNAPOLIS      LGT RAIN  43  35  73 CALM      29.82R
ANDREWS AFB    LGT RAIN  43  37  81 VRB7      29.80F
PHILADELPHIA   CLOUDY    44  34  67 N10       29.77F
HENDERSON NC   RAIN      44  41  91 NE13      29.79S
GREENSBORO     LGT RAIN  44  40  85 N10       29.77S
ROCKY MOUNT    LGT RAIN  47  45  93 N12       29.76F FOG
$$

VAZ100-271700-
MARINE

STATION/POSITION TIME  TEMP    WIND        PRES    WAVE   SWELL
                       AIR SEA DIR/SP/G            HT/PER HT/PER
                 (UTC) (F)     (DEG/KT/KT) (MB)    (FT/S) (FT/S)
BRANDYWINE LGT   1500   40 40  360/ 16/ 17 1008.3S
CAPE MAY NJ      1600   41 44  340/  9/ 14 1007.5F
LEWES DE         1600   41 43  350/ 13/ 16 1008.4R
15NM E FENWICK I 1550   40 40              1007.0F   6/ 8
OCEAN-CITY-INLET 1500   43 45   10/ 13/ 17 1007.4R
WACHAPREAGUE VA  1600   44 51   10/  6/ 12 1007.1F
THOMAS POINT MD  1600                        N/A
COVE POINT MD    1600   40     350/ 19/ 20 1009.2R
SOLOMONS ISLAND  1600      44                N/A
BISHOPS HEAD MD  1600   42 48   10/  8/ 13 1008.0F
PINEY POINT MD   1500           10/ 10/ 13   N/A
CAMBRIDGE MD     1600   42 45   10/ 13/ 15 1009.0R
LEWISETTA VA     1600   42 46              1009.6R
RAPPAHANNOCK LGT 1600           10/ 22/ 25 1008.1F
STINGRAY PT      1600   42 44   10/ 17/ 21   N/A     2/ 3
YORK RVR RNG VA  1600   44      10/ 21/ 24 1007.7R
YORKTOWN VA      1600   43 48  360/ 13/ 17 1008.7R
DOMINION TERM VA 1600   44      10/ 15/ 20 1008.2R
KIPTOPEKE VA     1600      50   20/ 14/ 18   N/A
CHES BAY BRIDGE  1500   43 45  350/ 22/ 25 1007.2F
CAPE HENRY VA    1600   43     340/ 19/ 21 1006.4R
CHESAPEAKE LGHT  1600   41      20/ 15/ 17 1007.6F
WILLOUBY STN VA  1600   43      10/ 20/ 23 1008.4S
S CRANEY ISL VA  1600           10/ 20/ 25 1007.6F
CAPE HENRY BUOY  1528      42                N/A     4/ 9   2/11
1ST LANDING BUOY 1600   43     350/ 17/ 23 1007.5R   3/ 3
OFFSHORE WE BUOY 1611      41                N/A     6/10   5/10
64NM E OF VA BCH 1550   49 52   10/ 23/ 27 1004.7S   9/ 7   3/10
DUCK PIER NC     1600   42 41   10/ 18/ 21 1005.5F
44056 DUCK FRF   1611      42                N/A     5/ 5   2/11
OREGON INLET NC  1600   43 58  360/ 18/ 25 1005.4F
HATTERAS NC      1500   50 60   10/ 20/ 24 1006.1R
CAPE LOOKOUT NC  1600   62     250/  8/ 11 1004.3F
$$



USA.gov is the U.S. government's official web portal to all federal, state and local government web resources and services.